Time,TemperatureF,DewpointF,PressureIn,WindDirection,WindDirectionDegrees,WindSpeedMPH,WindSpeedGustMPH,Humidity,HourlyPrecipIn,Conditions,Clouds,dailyrainin,SolarRadiationWatts/m^2,SoftwareType,DateUTC
2013-02-05 00:02:00,3.0,-1.0,-100.00,SSE,161,7.0,14.0,81,0.00,,,0.00,0.000000,,2013-02-05 06:02:00,
2013-02-05 00:11:00,3.0,-1.0,-100.00,SSE,161,7.0,14.0,81,0.00,,,0.00,0.000000,,2013-02-05 06:11:00,
2013-02-05 00:32:00,4.0,0.0,-100.00,SSE,160,8.0,13.0,84,0.00,,,0.00,0.000000,,2013-02-05 06:32:00,
2013-02-05 00:42:00,4.0,0.0,-100.00,SSE,160,8.0,13.0,84,0.00,,,0.00,0.000000,,2013-02-05 06:42:00,
2013-02-05 00:52:00,4.0,0.0,-100.00,SSE,160,8.0,13.0,84,0.00,,,0.00,0.000000,,2013-02-05 06:52:00,
2013-02-05 01:01:00,4.0,0.0,-100.00,SSE,160,8.0,13.0,84,0.00,,,0.00,0.000000,,2013-02-05 07:01:00,
2013-02-05 01:11:00,4.0,0.0,-100.00,SSE,160,8.0,13.0,84,0.00,,,0.00,0.000000,,2013-02-05 07:11:00,
2013-02-05 01:32:00,5.0,2.0,-100.00,SSE,164,5.0,12.0,85,0.00,,,0.00,0.000000,,2013-02-05 07:32:00,
2013-02-05 01:42:00,5.0,2.0,-100.00,SSE,164,5.0,12.0,85,0.00,,,0.00,0.000000,,2013-02-05 07:42:00,
2013-02-05 01:52:00,5.0,2.0,-100.00,SSE,164,5.0,12.0,85,0.00,,,0.00,0.000000,,2013-02-05 07:52:00,
2013-02-05 02:01:00,5.0,2.0,-100.00,SSE,164,5.0,12.0,85,0.00,,,0.00,0.000000,,2013-02-05 08:01:00,
2013-02-05 02:11:00,5.0,2.0,-100.00,SSE,164,5.0,12.0,85,0.00,,,0.00,0.000000,,2013-02-05 08:11:00,
2013-02-05 02:42:00,6.0,2.0,-100.00,SSE,168,5.0,9.0,85,0.00,,,0.00,1.000000,,2013-02-05 08:42:00,
2013-02-05 02:52:00,6.0,2.0,-100.00,SSE,168,5.0,9.0,85,0.00,,,0.00,1.000000,,2013-02-05 08:52:00,
2013-02-05 03:02:00,6.0,2.0,-100.00,SSE,168,5.0,9.0,85,0.00,,,0.00,1.000000,,2013-02-05 09:02:00,
2013-02-05 03:11:00,6.0,2.0,-100.00,SSE,168,5.0,9.0,85,0.00,,,0.00,1.000000,,2013-02-05 09:11:00,
2013-02-05 03:42:00,6.0,2.0,-100.00,South,169,3.0,10.0,85,0.00,,,0.00,0.000000,,2013-02-05 09:42:00,
2013-02-05 03:52:00,6.0,2.0,-100.00,South,169,3.0,10.0,85,0.00,,,0.00,0.000000,,2013-02-05 09:52:00,
2013-02-05 04:02:00,6.0,2.0,-100.00,South,169,3.0,10.0,85,0.00,,,0.00,0.000000,,2013-02-05 10:02:00,
2013-02-05 04:11:00,6.0,2.0,-100.00,South,169,3.0,10.0,85,0.00,,,0.00,0.000000,,2013-02-05 10:11:00,
2013-02-05 04:32:00,6.0,2.0,-100.00,SSE,153,0.0,6.0,85,0.00,,,0.00,1.000000,,2013-02-05 10:32:00,
2013-02-05 04:42:00,6.0,2.0,-100.00,SSE,153,0.0,6.0,85,0.00,,,0.00,1.000000,,2013-02-05 10:42:00,
2013-02-05 04:52:00,6.0,2.0,-100.00,SSE,153,0.0,6.0,85,0.00,,,0.00,1.000000,,2013-02-05 10:52:00,
2013-02-05 05:01:00,6.0,2.0,-100.00,SSE,153,0.0,6.0,85,0.00,,,0.00,1.000000,,2013-02-05 11:01:00,
2013-02-05 05:11:00,6.0,2.0,-100.00,SSE,153,0.0,6.0,85,0.00,,,0.00,1.000000,,2013-02-05 11:11:00,
2013-02-05 05:32:00,4.0,1.0,-100.00,NNE,32,1.0,2.0,85,0.00,,,0.00,1.000000,,2013-02-05 11:32:00,
2013-02-05 05:42:00,4.0,1.0,-100.00,NNE,32,1.0,2.0,85,0.00,,,0.00,1.000000,,2013-02-05 11:42:00,
2013-02-05 05:52:00,4.0,1.0,-100.00,NNE,32,1.0,2.0,85,0.00,,,0.00,1.000000,,2013-02-05 11:52:00,
2013-02-05 06:01:00,4.0,1.0,-100.00,NNE,32,1.0,2.0,85,0.00,,,0.00,1.000000,,2013-02-05 12:01:00,
2013-02-05 06:12:00,4.0,1.0,-100.00,NNE,32,1.0,2.0,85,0.00,,,0.00,1.000000,,2013-02-05 12:12:00,
2013-02-05 06:32:00,4.0,1.0,-100.00,NNW,338,3.0,4.0,85,0.00,,,0.00,0.000000,,2013-02-05 12:32:00,
2013-02-05 06:42:00,4.0,1.0,-100.00,NNW,338,3.0,4.0,85,0.00,,,0.00,0.000000,,2013-02-05 12:42:00,
2013-02-05 06:52:00,4.0,1.0,-100.00,NNW,338,3.0,4.0,85,0.00,,,0.00,0.000000,,2013-02-05 12:52:00,
2013-02-05 07:01:00,4.0,1.0,-100.00,NNW,338,3.0,4.0,85,0.00,,,0.00,0.000000,,2013-02-05 13:01:00,
2013-02-05 07:12:00,4.0,1.0,-100.00,NNW,338,3.0,4.0,85,0.00,,,0.00,0.000000,,2013-02-05 13:12:00,
2013-02-05 07:32:00,1.0,-3.0,-100.00,NNW,329,4.0,6.0,83,0.00,,,0.00,1.000000,,2013-02-05 13:32:00,
2013-02-05 07:42:00,1.0,-3.0,-100.00,NNW,329,4.0,6.0,83,0.00,,,0.00,1.000000,,2013-02-05 13:42:00,
2013-02-05 07:52:00,1.0,-3.0,-100.00,NNW,329,4.0,6.0,83,0.00,,,0.00,1.000000,,2013-02-05 13:52:00,
2013-02-05 08:01:00,1.0,-3.0,-100.00,NNW,329,4.0,6.0,83,0.00,,,0.00,1.000000,,2013-02-05 14:01:00,
2013-02-05 08:12:00,1.0,-3.0,-100.00,NNW,329,4.0,6.0,83,0.00,,,0.00,1.000000,,2013-02-05 14:12:00,
2013-02-05 08:42:00,1.0,-3.0,-100.00,NNW,329,6.0,9.0,81,0.00,,,0.00,19.000000,,2013-02-05 14:42:00,
2013-02-05 08:52:00,1.0,-3.0,-100.00,NNW,329,6.0,9.0,81,0.00,,,0.00,19.000000,,2013-02-05 14:52:00,
2013-02-05 09:02:00,1.0,-3.0,-100.00,NNW,329,6.0,9.0,81,0.00,,,0.00,19.000000,,2013-02-05 15:02:00,
2013-02-05 09:11:00,1.0,-3.0,-100.00,NNW,329,6.0,9.0,81,0.00,,,0.00,19.000000,,2013-02-05 15:11:00,
2013-02-05 09:32:00,4.0,-2.0,-100.00,NNW,329,8.0,13.0,77,0.00,,,0.00,131.000000,,2013-02-05 15:32:00,
2013-02-05 09:42:00,4.0,-2.0,-100.00,NNW,329,8.0,13.0,77,0.00,,,0.00,131.000000,,2013-02-05 15:42:00,
2013-02-05 09:52:00,4.0,-2.0,-100.00,NNW,329,8.0,13.0,77,0.00,,,0.00,131.000000,,2013-02-05 15:52:00,
2013-02-05 10:01:00,4.0,-2.0,-100.00,NNW,329,8.0,13.0,77,0.00,,,0.00,131.000000,,2013-02-05 16:01:00,
2013-02-05 10:11:00,4.0,-2.0,-100.00,NNW,329,8.0,13.0,77,0.00,,,0.00,131.000000,,2013-02-05 16:11:00,
2013-02-05 10:33:00,7.0,0.0,-100.00,NNW,333,6.0,12.0,73,0.00,,,-99.99,203.000000,,2013-02-05 16:33:00,
2013-02-05 10:42:00,7.0,0.0,-100.00,NNW,333,6.0,12.0,73,0.00,,,-99.99,203.000000,,2013-02-05 16:42:00,
2013-02-05 10:52:00,7.0,0.0,-100.00,NNW,333,6.0,12.0,73,0.00,,,-99.99,203.000000,,2013-02-05 16:52:00,
2013-02-05 11:01:00,7.0,0.0,-100.00,NNW,333,6.0,12.0,73,0.00,,,-99.99,203.000000,,2013-02-05 17:01:00,
2013-02-05 11:11:00,7.0,0.0,-100.00,NNW,333,6.0,12.0,73,0.00,,,-99.99,203.000000,,2013-02-05 17:11:00,
2013-02-05 11:33:00,10.0,2.0,-100.00,NNW,328,6.0,11.0,69,0.00,,,0.00,279.000000,,2013-02-05 17:33:00,
2013-02-05 11:42:00,10.0,2.0,-100.00,NNW,328,6.0,11.0,69,0.00,,,0.00,279.000000,,2013-02-05 17:42:00,
2013-02-05 11:52:00,10.0,2.0,-100.00,NNW,328,6.0,11.0,69,0.00,,,0.00,279.000000,,2013-02-05 17:52:00,
2013-02-05 12:02:00,10.0,2.0,-100.00,NNW,328,6.0,11.0,69,0.00,,,0.00,279.000000,,2013-02-05 18:02:00,
2013-02-05 12:11:00,10.0,2.0,-100.00,NNW,328,6.0,11.0,69,0.00,,,0.00,279.000000,,2013-02-05 18:11:00,
2013-02-05 12:32:00,12.0,3.0,-100.00,NNW,329,9.0,14.0,66,0.00,,,0.00,485.000000,,2013-02-05 18:32:00,
2013-02-05 12:42:00,12.0,3.0,-100.00,NNW,329,9.0,14.0,66,0.00,,,0.00,485.000000,,2013-02-05 18:42:00,
2013-02-05 12:52:00,12.0,3.0,-100.00,NNW,329,9.0,14.0,66,0.00,,,0.00,485.000000,,2013-02-05 18:52:00,
2013-02-05 13:02:00,12.0,3.0,-100.00,NNW,329,9.0,14.0,66,0.00,,,0.00,485.000000,,2013-02-05 19:02:00,
2013-02-05 13:11:00,12.0,3.0,-100.00,NNW,329,9.0,14.0,66,0.00,,,0.00,485.000000,,2013-02-05 19:11:00,
2013-02-05 13:42:00,13.0,2.0,-100.00,NW,325,9.0,16.0,61,0.00,,,0.00,495.000000,,2013-02-05 19:42:00,
2013-02-05 13:52:00,13.0,2.0,-100.00,NW,325,9.0,16.0,61,0.00,,,0.00,495.000000,,2013-02-05 19:52:00,
2013-02-05 14:01:00,13.0,2.0,-100.00,NW,325,9.0,16.0,61,0.00,,,0.00,495.000000,,2013-02-05 20:01:00,
2013-02-05 14:11:00,13.0,2.0,-100.00,NW,325,9.0,16.0,61,0.00,,,0.00,495.000000,,2013-02-05 20:11:00,
2013-02-05 14:32:00,13.0,1.0,-100.00,NW,309,9.0,15.0,58,0.00,,,-99.99,452.000000,,2013-02-05 20:32:00,
2013-02-05 14:42:00,13.0,1.0,-100.00,NW,309,9.0,15.0,58,0.00,,,-99.99,452.000000,,2013-02-05 20:42:00,
2013-02-05 14:52:00,13.0,1.0,-100.00,NW,309,9.0,15.0,58,0.00,,,-99.99,452.000000,,2013-02-05 20:52:00,
2013-02-05 15:02:00,13.0,1.0,-100.00,NW,309,9.0,15.0,58,0.00,,,-99.99,452.000000,,2013-02-05 21:02:00,
2013-02-05 15:11:00,13.0,1.0,-100.00,NW,309,9.0,15.0,58,0.00,,,-99.99,452.000000,,2013-02-05 21:11:00,
2013-02-05 15:42:00,11.0,-1.0,-100.00,NW,320,8.0,17.0,57,0.00,,,0.00,327.000000,,2013-02-05 21:42:00,
2013-02-05 15:52:00,11.0,-1.0,-100.00,NW,320,8.0,17.0,57,0.00,,,0.00,327.000000,,2013-02-05 21:52:00,
2013-02-05 16:01:00,11.0,-1.0,-100.00,NW,320,8.0,17.0,57,0.00,,,0.00,327.000000,,2013-02-05 22:01:00,
2013-02-05 16:11:00,11.0,-1.0,-100.00,NW,320,8.0,17.0,57,0.00,,,0.00,327.000000,,2013-02-05 22:11:00,
2013-02-05 16:32:00,9.0,-3.0,-100.00,NW,313,8.0,15.0,57,0.00,,,0.00,133.000000,,2013-02-05 22:32:00,
2013-02-05 16:42:00,9.0,-3.0,-100.00,NW,313,8.0,15.0,57,0.00,,,0.00,133.000000,,2013-02-05 22:42:00,
2013-02-05 16:52:00,9.0,-3.0,-100.00,NW,313,8.0,15.0,57,0.00,,,0.00,133.000000,,2013-02-05 22:52:00,
2013-02-05 17:02:00,9.0,-3.0,-100.00,NW,313,8.0,15.0,57,0.00,,,0.00,133.000000,,2013-02-05 23:02:00,
2013-02-05 17:11:00,9.0,-3.0,-100.00,NW,313,8.0,15.0,57,0.00,,,0.00,133.000000,,2013-02-05 23:11:00,
2013-02-05 17:33:00,6.0,-4.0,-100.00,NW,319,4.0,15.0,63,0.00,,,0.00,16.000000,,2013-02-05 23:33:00,
2013-02-05 17:42:00,6.0,-4.0,-100.00,NW,319,4.0,15.0,63,0.00,,,0.00,16.000000,,2013-02-05 23:42:00,
2013-02-05 17:53:00,6.0,-4.0,-100.00,NW,319,4.0,15.0,63,0.00,,,0.00,16.000000,,2013-02-05 23:53:00,
2013-02-05 18:02:00,6.0,-4.0,-100.00,NW,319,4.0,15.0,63,0.00,,,0.00,16.000000,,2013-02-06 00:02:00,
2013-02-05 18:11:00,6.0,-4.0,-100.00,NW,319,4.0,15.0,63,0.00,,,0.00,16.000000,,2013-02-06 00:11:00,
2013-02-05 18:32:00,4.0,-4.0,-100.00,NW,309,7.0,10.0,70,0.00,,,0.00,1.000000,,2013-02-06 00:32:00,
2013-02-05 18:42:00,4.0,-4.0,-100.00,NW,309,7.0,10.0,70,0.00,,,0.00,1.000000,,2013-02-06 00:42:00,
2013-02-05 18:52:00,4.0,-4.0,-100.00,NW,309,7.0,10.0,70,0.00,,,0.00,1.000000,,2013-02-06 00:52:00,
2013-02-05 19:02:00,4.0,-4.0,-100.00,NW,309,7.0,10.0,70,0.00,,,0.00,1.000000,,2013-02-06 01:02:00,
2013-02-05 19:11:00,4.0,-4.0,-100.00,NW,309,7.0,10.0,70,0.00,,,0.00,1.000000,,2013-02-06 01:11:00,
2013-02-05 19:33:00,2.0,-5.0,-100.00,NW,323,5.0,11.0,71,0.00,,,0.00,0.000000,,2013-02-06 01:33:00,
2013-02-05 19:42:00,2.0,-5.0,-100.00,NW,323,5.0,11.0,71,0.00,,,0.00,0.000000,,2013-02-06 01:42:00,
2013-02-05 19:53:00,2.0,-5.0,-100.00,NW,323,5.0,11.0,71,0.00,,,0.00,0.000000,,2013-02-06 01:53:00,
2013-02-05 20:01:00,2.0,-5.0,-100.00,NW,323,5.0,11.0,71,0.00,,,0.00,0.000000,,2013-02-06 02:01:00,
2013-02-05 20:11:00,2.0,-5.0,-100.00,NW,323,5.0,11.0,71,0.00,,,0.00,0.000000,,2013-02-06 02:11:00,
2013-02-05 20:42:00,0.0,-6.0,-100.00,NW,323,5.0,9.0,74,0.00,,,0.00,0.000000,,2013-02-06 02:42:00,
2013-02-05 20:52:00,0.0,-6.0,-100.00,NW,323,5.0,9.0,74,0.00,,,0.00,0.000000,,2013-02-06 02:52:00,
2013-02-05 21:02:00,0.0,-6.0,-100.00,NW,323,5.0,9.0,74,0.00,,,0.00,0.000000,,2013-02-06 03:02:00,
2013-02-05 21:12:00,0.0,-6.0,-100.00,NW,323,5.0,9.0,74,0.00,,,0.00,0.000000,,2013-02-06 03:12:00,
2013-02-05 21:33:00,0.0,-6.0,-100.00,NW,326,4.0,7.0,75,0.00,,,0.00,0.000000,,2013-02-06 03:33:00,
2013-02-05 21:42:00,0.0,-6.0,-100.00,NW,326,4.0,7.0,75,0.00,,,0.00,0.000000,,2013-02-06 03:42:00,
2013-02-05 21:53:00,0.0,-6.0,-100.00,NW,326,4.0,7.0,75,0.00,,,0.00,0.000000,,2013-02-06 03:53:00,
2013-02-05 22:42:00,-1.0,-6.0,-100.00,WNW,292,3.0,5.0,77,-99.99,,,0.00,0.000000,,2013-02-06 04:42:00,
2013-02-05 22:52:00,-1.0,-6.0,-100.00,WNW,292,3.0,5.0,77,-99.99,,,0.00,0.000000,,2013-02-06 04:52:00,
2013-02-05 23:42:00,-2.0,-7.0,-100.00,West,280,3.0,5.0,78,-99.99,,,0.00,0.000000,,2013-02-06 05:42:00,
2013-02-05 23:53:00,-2.0,-7.0,-100.00,West,280,3.0,5.0,78,-99.99,,,0.00,0.000000,,2013-02-06 05:53:00,